STARLINK-35375, 66065

Orbit data source: Space-Track

STARLINK-35375, 66065 is a payload satellite owned by SpaceX/Seattle (US) in LEO that was launched on Sun, 19 Oct 2025 UTC via an FALCON 9 launch vehicle from the Air Force Eastern Test Range (AFETR). Payload-class satellites include a variety of spacecraft equipped with specific instruments for various scientific and technological missions. These include communications satellites like Starlink; space stations such as the ISS; scientific satellites like the Hubble; Earth observation satellites from companies like Planet Labs, Umbra, and HawkEye 360; GPS; miniature CubeSats for education and research; and military/defense satellites.

Loading next visibility...
Identifier
66065, 2025-235H
Orbit
LEO
Country
Flag of USUS
Related business
Manufacturer
SpaceX/Seattle
Mission
Operational spacecraft
Bus & Motor
STARLINK V2MO, Unknown motor
Mass
575 kg wet, ~530 kg dry
Launch date (UTC)
2025-10-19 (2 weeks ago)
Launch vehicle
FALCON 9
Launch site
Air Force Eastern Test Range (AFETR)
Object type
Payload
Rocket body
Debris
Shape & HBR
Unknown
Radar Cross Section
RCS unknown

Expand to show TLE details & history
Last TLE update: 8 hours ago

TLE from 8 hours ago
0 STARLINK-35375
1 66065U 25235H   25305.58335648 -.01525224  00000-0 -96065-2 0  9998
2 66065  53.1503 124.7912 0000693  87.7615 320.6547 15.78927461  3268
Epoch: 2025-11-01T14:00Z
TLE epoch observation values (Epoch: 2025-11-01T14:00:01.999Z)
Latitude
36.88451°
Longitude
-92.32669°
Altitude
336.06 km
Speed
7.712 km/s
True Right ascension
10h 35m 10s
True Declination
36° 42' 33"
Sunlit
Object was in daylight at epoch
Visualization orbit readout
Latitude
Unknown
Longitude
Unknown
Altitude
Unknown
Speed
Unknown
Apparent Right ascension
Unknown
Apparent Declination
Unknown
Sunlit
N/A
Visualization observer readout
Local Sidereal Time
17:26:30
Azimuth
Unknown
Elevation
Unknown
Doppler factor
Unknown
Orbital elements
Apogee altitude
334.207 km
Perigee altitude
333.276 km
Semi-major axis
6,711.879 km
Eccentricity
0.00007
Inclination
53.1503°
RAAN
124.7912°
Arg. of periapsis
87.7615°
True anomaly
320.64967°
Mean anomaly
320.6547°
Eccentric anomaly
320.65218°
Mean motion
3.94709 °/min
Orbital period
91.21 mins
BSTAR
-0.0096065
Loading maneuver chart data...
Computing Atmospheric mass density...
Loading historical data...
Loading historical data...
Loading historical data...
Loading historical data...
Loading historical data...
Loading historical data...
Loading historical data...

Documentation

Showing up to 5 results
|